Time,TemperatureF,DewpointF,PressureIn,WindDirection,WindDirectionDegrees,WindSpeedMPH,WindSpeedGustMPH,Humidity,HourlyPrecipIn,Conditions,Clouds,dailyrainin,SoftwareType,DateUTC
2013-04-25 00:02:00,32.0,25.0,-100.00,North,-999,-999.0,-999.0,72,0.00,,,0.00,,2013-04-25 05:02:00,
2013-04-25 00:12:00,33.0,25.0,-100.00,North,-999,-999.0,-999.0,73,0.00,,,0.00,,2013-04-25 05:12:00,
2013-04-25 00:21:00,32.0,25.0,-100.00,North,-999,-999.0,-999.0,73,0.00,,,0.00,,2013-04-25 05:21:00,
2013-04-25 00:32:00,33.0,25.0,-100.00,North,-999,-999.0,-999.0,74,0.00,,,0.00,,2013-04-25 05:32:00,
2013-04-25 00:42:00,33.0,27.0,-100.00,North,-999,-999.0,-999.0,73,0.00,,,0.00,,2013-04-25 05:42:00,
2013-04-25 00:51:00,33.0,25.0,-100.00,North,-999,-999.0,-999.0,73,0.00,,,0.00,,2013-04-25 05:51:00,
2013-04-25 01:02:00,33.0,25.0,-100.00,North,-999,-999.0,-999.0,72,0.00,,,0.00,,2013-04-25 06:02:00,
2013-04-25 01:11:00,33.0,25.0,-100.00,North,-999,-999.0,-999.0,72,0.00,,,0.00,,2013-04-25 06:11:00,
2013-04-25 01:22:00,33.0,25.0,-100.00,North,-999,-999.0,-999.0,73,0.00,,,0.00,,2013-04-25 06:22:00,
2013-04-25 01:31:00,33.0,25.0,-100.00,North,-999,-999.0,-999.0,73,0.00,,,0.00,,2013-04-25 06:31:00,
2013-04-25 01:41:00,32.0,25.0,-100.00,North,-999,-999.0,-999.0,74,0.00,,,0.00,,2013-04-25 06:41:00,
2013-04-25 01:52:00,32.0,25.0,-100.00,North,-999,-999.0,-999.0,75,0.00,,,0.00,,2013-04-25 06:52:00,
2013-04-25 02:01:00,32.0,25.0,-100.00,North,-999,-999.0,-999.0,76,0.00,,,0.00,,2013-04-25 07:01:00,
2013-04-25 02:11:00,31.0,25.0,-100.00,North,-999,-999.0,-999.0,76,0.00,,,0.00,,2013-04-25 07:11:00,
2013-04-25 02:22:00,31.0,25.0,-100.00,North,-999,-999.0,-999.0,77,0.00,,,0.00,,2013-04-25 07:22:00,
2013-04-25 02:32:00,31.0,25.0,-100.00,North,-999,-999.0,-999.0,78,0.00,,,0.00,,2013-04-25 07:32:00,
2013-04-25 02:42:00,31.0,25.0,-100.00,North,-999,-999.0,-999.0,79,0.00,,,0.00,,2013-04-25 07:42:00,
2013-04-25 02:52:00,31.0,27.0,-100.00,North,-999,-999.0,-999.0,81,0.00,,,0.00,,2013-04-25 07:52:00,
2013-04-25 03:01:00,31.0,27.0,-100.00,North,-999,-999.0,-999.0,82,0.00,,,0.00,,2013-04-25 08:01:00,
2013-04-25 03:11:00,31.0,27.0,-100.00,North,-999,-999.0,-999.0,82,0.00,,,0.00,,2013-04-25 08:11:00,
2013-04-25 03:21:00,31.0,27.0,-100.00,North,-999,-999.0,-999.0,83,0.00,,,0.00,,2013-04-25 08:21:00,
2013-04-25 03:31:00,31.0,27.0,-100.00,North,-999,-999.0,-999.0,83,0.00,,,0.00,,2013-04-25 08:31:00,
2013-04-25 03:41:00,30.0,27.0,-100.00,North,-999,-999.0,-999.0,84,0.00,,,0.00,,2013-04-25 08:41:00,
2013-04-25 03:51:00,30.0,27.0,-100.00,North,-999,-999.0,-999.0,85,0.00,,,0.00,,2013-04-25 08:51:00,
2013-04-25 04:01:00,30.0,27.0,-100.00,North,-999,-999.0,-999.0,85,0.00,,,0.00,,2013-04-25 09:01:00,
2013-04-25 04:11:00,30.0,27.0,-100.00,North,-999,-999.0,-999.0,86,0.00,,,0.00,,2013-04-25 09:11:00,
2013-04-25 04:21:00,30.0,27.0,-100.00,North,-999,-999.0,-999.0,86,0.00,,,0.00,,2013-04-25 09:21:00,
2013-04-25 04:33:00,29.0,27.0,-100.00,North,-999,-999.0,-999.0,86,0.00,,,0.00,,2013-04-25 09:33:00,
2013-04-25 04:42:00,29.0,25.0,-100.00,North,-999,-999.0,-999.0,86,0.00,,,0.00,,2013-04-25 09:42:00,
2013-04-25 04:52:00,29.0,27.0,-100.00,North,-999,-999.0,-999.0,87,0.00,,,0.00,,2013-04-25 09:52:00,
2013-04-25 05:02:00,29.0,27.0,-100.00,North,-999,-999.0,-999.0,87,0.00,,,0.00,,2013-04-25 10:02:00,
2013-04-25 05:12:00,29.0,25.0,-100.00,North,-999,-999.0,-999.0,87,0.00,,,0.00,,2013-04-25 10:12:00,
2013-04-25 05:22:00,29.0,25.0,-100.00,North,-999,-999.0,-999.0,88,0.00,,,0.00,,2013-04-25 10:22:00,
2013-04-25 05:32:00,29.0,25.0,-100.00,North,-999,-999.0,-999.0,88,0.00,,,0.00,,2013-04-25 10:32:00,
2013-04-25 05:42:00,28.0,25.0,-100.00,North,-999,-999.0,-999.0,88,0.00,,,0.00,,2013-04-25 10:42:00,
2013-04-25 05:52:00,29.0,27.0,-100.00,North,-999,-999.0,-999.0,88,0.00,,,0.00,,2013-04-25 10:52:00,
2013-04-25 06:02:00,29.0,25.0,-100.00,North,-999,-999.0,-999.0,88,0.00,,,0.00,,2013-04-25 11:02:00,
2013-04-25 06:12:00,28.0,25.0,-100.00,North,-999,-999.0,-999.0,88,0.00,,,0.00,,2013-04-25 11:12:00,
2013-04-25 06:22:00,28.0,25.0,-100.00,North,-999,-999.0,-999.0,88,0.00,,,0.00,,2013-04-25 11:22:00,
2013-04-25 06:32:00,29.0,25.0,-100.00,North,-999,-999.0,-999.0,88,0.00,,,0.00,,2013-04-25 11:32:00,
2013-04-25 06:42:00,28.0,25.0,-100.00,North,-999,-999.0,-999.0,88,0.00,,,0.00,,2013-04-25 11:42:00,
2013-04-25 06:51:00,28.0,25.0,-100.00,North,-999,-999.0,-999.0,88,0.00,,,0.00,,2013-04-25 11:51:00,
2013-04-25 07:01:00,29.0,25.0,-100.00,North,-999,-999.0,-999.0,88,0.00,,,0.00,,2013-04-25 12:01:00,
2013-04-25 07:12:00,29.0,25.0,-100.00,North,-999,-999.0,-999.0,88,0.00,,,0.00,,2013-04-25 12:12:00,
2013-04-25 07:21:00,29.0,27.0,-100.00,North,-999,-999.0,-999.0,88,0.00,,,0.00,,2013-04-25 12:21:00,
2013-04-25 07:31:00,30.0,27.0,-100.00,North,-999,-999.0,-999.0,87,0.00,,,0.00,,2013-04-25 12:31:00,
2013-04-25 07:41:00,30.0,27.0,-100.00,North,-999,-999.0,-999.0,86,0.00,,,0.00,,2013-04-25 12:41:00,
2013-04-25 07:51:00,31.0,27.0,-100.00,North,-999,-999.0,-999.0,85,0.00,,,0.00,,2013-04-25 12:51:00,
2013-04-25 08:02:00,32.0,28.0,-100.00,North,-999,-999.0,-999.0,83,0.00,,,0.00,,2013-04-25 13:02:00,
2013-04-25 08:11:00,33.0,28.0,-100.00,North,-999,-999.0,-999.0,81,0.00,,,0.00,,2013-04-25 13:11:00,
2013-04-25 08:21:00,33.0,27.0,-100.00,North,-999,-999.0,-999.0,78,0.00,,,0.00,,2013-04-25 13:21:00,
2013-04-25 08:32:00,34.0,27.0,-100.00,North,-999,-999.0,-999.0,75,0.00,,,0.00,,2013-04-25 13:32:00,
2013-04-25 08:42:00,35.0,27.0,-100.00,North,-999,-999.0,-999.0,72,0.00,,,0.00,,2013-04-25 13:42:00,
2013-04-25 08:52:00,35.0,27.0,-100.00,North,-999,-999.0,-999.0,69,0.00,,,0.00,,2013-04-25 13:52:00,
2013-04-25 09:01:00,36.0,27.0,-100.00,North,-999,-999.0,-999.0,66,0.00,,,0.00,,2013-04-25 14:01:00,
2013-04-25 09:11:00,36.0,25.0,-100.00,North,-999,-999.0,-999.0,64,0.00,,,0.00,,2013-04-25 14:11:00,
2013-04-25 09:21:00,37.0,25.0,-100.00,North,-999,-999.0,-999.0,61,0.00,,,0.00,,2013-04-25 14:21:00,
2013-04-25 09:32:00,38.0,25.0,-100.00,North,-999,-999.0,-999.0,58,0.00,,,0.00,,2013-04-25 14:32:00,
2013-04-25 09:42:00,39.0,25.0,-100.00,North,-999,-999.0,-999.0,57,0.00,,,0.00,,2013-04-25 14:42:00,
2013-04-25 09:51:00,39.0,23.0,-100.00,North,-999,-999.0,-999.0,54,0.00,,,0.00,,2013-04-25 14:51:00,
2013-04-25 10:02:00,39.0,23.0,-100.00,North,-999,-999.0,-999.0,53,0.00,,,0.00,,2013-04-25 15:02:00,
2013-04-25 10:11:00,40.0,23.0,-100.00,North,-999,-999.0,-999.0,52,0.00,,,0.00,,2013-04-25 15:11:00,
2013-04-25 10:21:00,40.0,23.0,-100.00,North,-999,-999.0,-999.0,49,0.00,,,0.00,,2013-04-25 15:21:00,
2013-04-25 10:33:00,41.0,23.0,-100.00,North,-999,-999.0,-999.0,48,0.00,,,0.00,,2013-04-25 15:33:00,
2013-04-25 10:42:00,42.0,23.0,-100.00,North,-999,-999.0,-999.0,47,0.00,,,0.00,,2013-04-25 15:42:00,
2013-04-25 10:52:00,42.0,23.0,-100.00,North,-999,-999.0,-999.0,46,0.00,,,0.00,,2013-04-25 15:52:00,
2013-04-25 11:02:00,42.0,23.0,-100.00,North,-999,-999.0,-999.0,44,0.00,,,0.00,,2013-04-25 16:02:00,
2013-04-25 11:13:00,41.0,21.0,-100.00,North,-999,-999.0,-999.0,44,0.00,,,0.00,,2013-04-25 16:13:00,
2013-04-25 11:24:00,42.0,21.0,-100.00,North,-999,-999.0,-999.0,44,0.00,,,0.00,,2013-04-25 16:24:00,
2013-04-25 11:32:00,42.0,21.0,-100.00,North,-999,-999.0,-999.0,44,0.00,,,0.00,,2013-04-25 16:32:00,
2013-04-25 11:42:00,43.0,21.0,-100.00,North,-999,-999.0,-999.0,43,0.00,,,0.00,,2013-04-25 16:42:00,
2013-04-25 11:52:00,44.0,23.0,-100.00,North,-999,-999.0,-999.0,42,0.00,,,0.00,,2013-04-25 16:52:00,
2013-04-25 12:02:00,41.0,21.0,-100.00,North,-999,-999.0,-999.0,42,0.00,,,0.00,,2013-04-25 17:02:00,
2013-04-25 12:11:00,42.0,21.0,-100.00,North,-999,-999.0,-999.0,42,0.00,,,0.00,,2013-04-25 17:11:00,
2013-04-25 12:22:00,44.0,21.0,-100.00,North,-999,-999.0,-999.0,41,0.00,,,0.00,,2013-04-25 17:22:00,
2013-04-25 12:32:00,42.0,21.0,-100.00,North,-999,-999.0,-999.0,42,0.00,,,0.00,,2013-04-25 17:32:00,
2013-04-25 12:42:00,43.0,21.0,-100.00,North,-999,-999.0,-999.0,41,0.00,,,0.00,,2013-04-25 17:42:00,
2013-04-25 12:53:00,42.0,21.0,-100.00,North,-999,-999.0,-999.0,41,0.00,,,0.00,,2013-04-25 17:53:00,
2013-04-25 13:01:00,45.0,21.0,-100.00,North,-999,-999.0,-999.0,39,0.00,,,0.00,,2013-04-25 18:01:00,
2013-04-25 13:11:00,44.0,21.0,-100.00,North,-999,-999.0,-999.0,39,0.00,,,0.00,,2013-04-25 18:11:00,
2013-04-25 13:21:00,45.0,21.0,-100.00,North,-999,-999.0,-999.0,38,0.00,,,0.00,,2013-04-25 18:21:00,
2013-04-25 13:32:00,44.0,21.0,-100.00,North,-999,-999.0,-999.0,38,0.00,,,0.00,,2013-04-25 18:32:00,
2013-04-25 13:42:00,45.0,21.0,-100.00,North,-999,-999.0,-999.0,38,0.00,,,0.00,,2013-04-25 18:42:00,
2013-04-25 13:52:00,45.0,21.0,-100.00,North,-999,-999.0,-999.0,37,0.00,,,0.00,,2013-04-25 18:52:00,
2013-04-25 14:01:00,47.0,21.0,-100.00,North,-999,-999.0,-999.0,36,0.00,,,0.00,,2013-04-25 19:01:00,
2013-04-25 14:12:00,45.0,21.0,-100.00,North,-999,-999.0,-999.0,36,0.00,,,0.00,,2013-04-25 19:12:00,
2013-04-25 14:21:00,45.0,18.0,-100.00,North,-999,-999.0,-999.0,34,0.00,,,0.00,,2013-04-25 19:21:00,
2013-04-25 14:31:00,47.0,21.0,-100.00,North,-999,-999.0,-999.0,35,0.00,,,0.00,,2013-04-25 19:31:00,
2013-04-25 14:41:00,47.0,19.0,-100.00,North,-999,-999.0,-999.0,34,0.00,,,0.00,,2013-04-25 19:41:00,
2013-04-25 14:52:00,46.0,21.0,-100.00,North,-999,-999.0,-999.0,35,0.00,,,0.00,,2013-04-25 19:52:00,
2013-04-25 15:01:00,47.0,21.0,-100.00,North,-999,-999.0,-999.0,35,0.00,,,0.00,,2013-04-25 20:01:00,
2013-04-25 15:11:00,46.0,19.0,-100.00,North,-999,-999.0,-999.0,35,0.00,,,0.00,,2013-04-25 20:11:00,
2013-04-25 15:22:00,46.0,21.0,-100.00,North,-999,-999.0,-999.0,35,0.00,,,0.00,,2013-04-25 20:22:00,
2013-04-25 15:32:00,47.0,21.0,-100.00,North,-999,-999.0,-999.0,35,0.00,,,0.00,,2013-04-25 20:32:00,
2013-04-25 15:42:00,46.0,19.0,-100.00,North,-999,-999.0,-999.0,35,0.00,,,0.00,,2013-04-25 20:42:00,
2013-04-25 15:52:00,46.0,21.0,-100.00,North,-999,-999.0,-999.0,35,0.00,,,0.00,,2013-04-25 20:52:00,
2013-04-25 16:01:00,45.0,19.0,-100.00,North,-999,-999.0,-999.0,35,0.00,,,0.00,,2013-04-25 21:01:00,
2013-04-25 16:11:00,47.0,19.0,-100.00,North,-999,-999.0,-999.0,34,0.00,,,0.00,,2013-04-25 21:11:00,
2013-04-25 16:21:00,48.0,19.0,-100.00,North,-999,-999.0,-999.0,33,0.00,,,0.00,,2013-04-25 21:21:00,
2013-04-25 16:33:00,47.0,19.0,-100.00,North,-999,-999.0,-999.0,33,0.00,,,0.00,,2013-04-25 21:33:00,
2013-04-25 16:42:00,49.0,19.0,-100.00,North,-999,-999.0,-999.0,32,0.00,,,0.00,,2013-04-25 21:42:00,
2013-04-25 16:52:00,48.0,19.0,-100.00,North,-999,-999.0,-999.0,32,0.00,,,0.00,,2013-04-25 21:52:00,
2013-04-25 17:02:00,48.0,19.0,-100.00,North,-999,-999.0,-999.0,31,0.00,,,0.00,,2013-04-25 22:02:00,
2013-04-25 17:12:00,48.0,19.0,-100.00,North,-999,-999.0,-999.0,31,0.00,,,0.00,,2013-04-25 22:12:00,
2013-04-25 17:22:00,49.0,19.0,-100.00,North,-999,-999.0,-999.0,31,0.00,,,0.00,,2013-04-25 22:22:00,
2013-04-25 17:32:00,48.0,19.0,-100.00,North,-999,-999.0,-999.0,31,0.00,,,0.00,,2013-04-25 22:32:00,
2013-04-25 17:42:00,48.0,19.0,-100.00,North,-999,-999.0,-999.0,31,0.00,,,0.00,,2013-04-25 22:42:00,
2013-04-25 17:52:00,48.0,18.0,-100.00,North,-999,-999.0,-999.0,30,0.00,,,0.00,,2013-04-25 22:52:00,
2013-04-25 18:02:00,48.0,18.0,-100.00,North,-999,-999.0,-999.0,30,0.00,,,0.00,,2013-04-25 23:02:00,
2013-04-25 18:12:00,48.0,18.0,-100.00,North,-999,-999.0,-999.0,30,0.00,,,0.00,,2013-04-25 23:12:00,
2013-04-25 18:22:00,48.0,18.0,-100.00,North,-999,-999.0,-999.0,30,0.00,,,0.00,,2013-04-25 23:22:00,
2013-04-25 18:32:00,48.0,18.0,-100.00,North,-999,-999.0,-999.0,29,0.00,,,0.00,,2013-04-25 23:32:00,
2013-04-25 18:41:00,48.0,18.0,-100.00,North,-999,-999.0,-999.0,29,0.00,,,0.00,,2013-04-25 23:41:00,
2013-04-25 18:52:00,47.0,18.0,-100.00,North,-999,-999.0,-999.0,29,0.00,,,0.00,,2013-04-25 23:52:00,
2013-04-25 19:01:00,47.0,18.0,-100.00,North,-999,-999.0,-999.0,30,0.00,,,0.00,,2013-04-26 00:01:00,
2013-04-25 19:11:00,47.0,18.0,-100.00,North,-999,-999.0,-999.0,30,0.00,,,0.00,,2013-04-26 00:11:00,
2013-04-25 19:21:00,47.0,18.0,-100.00,North,-999,-999.0,-999.0,30,0.00,,,0.00,,2013-04-26 00:21:00,
2013-04-25 19:31:00,46.0,18.0,-100.00,North,-999,-999.0,-999.0,30,0.00,,,0.00,,2013-04-26 00:31:00,
2013-04-25 19:41:00,46.0,18.0,-100.00,North,-999,-999.0,-999.0,31,0.00,,,0.00,,2013-04-26 00:41:00,
2013-04-25 19:51:00,45.0,18.0,-100.00,North,-999,-999.0,-999.0,31,0.00,,,0.00,,2013-04-26 00:51:00,
2013-04-25 20:01:00,45.0,18.0,-100.00,North,-999,-999.0,-999.0,32,0.00,,,0.00,,2013-04-26 01:01:00,
2013-04-25 20:11:00,44.0,18.0,-100.00,North,-999,-999.0,-999.0,33,0.00,,,0.00,,2013-04-26 01:11:00,
2013-04-25 20:21:00,43.0,18.0,-100.00,North,-999,-999.0,-999.0,34,0.00,,,0.00,,2013-04-26 01:21:00,
2013-04-25 20:31:00,42.0,16.0,-100.00,North,-999,-999.0,-999.0,35,0.00,,,0.00,,2013-04-26 01:31:00,
2013-04-25 20:41:00,41.0,18.0,-100.00,North,-999,-999.0,-999.0,36,0.00,,,0.00,,2013-04-26 01:41:00,
2013-04-25 20:52:00,41.0,18.0,-100.00,North,-999,-999.0,-999.0,37,0.00,,,0.00,,2013-04-26 01:52:00,
2013-04-25 21:02:00,41.0,18.0,-100.00,North,-999,-999.0,-999.0,38,0.00,,,0.00,,2013-04-26 02:02:00,
2013-04-25 21:11:00,41.0,18.0,-100.00,North,-999,-999.0,-999.0,38,0.00,,,0.00,,2013-04-26 02:11:00,
2013-04-25 21:21:00,41.0,18.0,-100.00,North,-999,-999.0,-999.0,40,0.00,,,0.00,,2013-04-26 02:21:00,
2013-04-25 21:32:00,41.0,19.0,-100.00,North,-999,-999.0,-999.0,41,0.00,,,0.00,,2013-04-26 02:32:00,
2013-04-25 21:42:00,40.0,19.0,-100.00,North,-999,-999.0,-999.0,42,0.00,,,0.00,,2013-04-26 02:42:00,
2013-04-25 21:51:00,40.0,19.0,-100.00,North,-999,-999.0,-999.0,43,0.00,,,0.00,,2013-04-26 02:51:00,
2013-04-25 22:01:00,40.0,19.0,-100.00,North,-999,-999.0,-999.0,43,0.00,,,0.00,,2013-04-26 03:01:00,
2013-04-25 22:11:00,40.0,19.0,-100.00,North,-999,-999.0,-999.0,44,0.00,,,0.00,,2013-04-26 03:11:00,
2013-04-25 22:21:00,40.0,19.0,-100.00,North,-999,-999.0,-999.0,45,0.00,,,0.00,,2013-04-26 03:21:00,
2013-04-25 22:33:00,40.0,21.0,-100.00,North,-999,-999.0,-999.0,45,0.00,,,0.00,,2013-04-26 03:33:00,
2013-04-25 22:43:00,40.0,21.0,-100.00,North,-999,-999.0,-999.0,45,0.00,,,0.00,,2013-04-26 03:43:00,
2013-04-25 22:53:00,40.0,21.0,-100.00,North,-999,-999.0,-999.0,45,0.00,,,0.00,,2013-04-26 03:53:00,
2013-04-25 23:02:00,40.0,21.0,-100.00,North,-999,-999.0,-999.0,44,0.00,,,0.00,,2013-04-26 04:02:00,
2013-04-25 23:12:00,40.0,21.0,-100.00,North,-999,-999.0,-999.0,44,0.00,,,0.00,,2013-04-26 04:12:00,
2013-04-25 23:22:00,41.0,21.0,-100.00,North,-999,-999.0,-999.0,44,0.00,,,0.00,,2013-04-26 04:22:00,
2013-04-25 23:32:00,41.0,21.0,-100.00,North,-999,-999.0,-999.0,44,0.00,,,0.00,,2013-04-26 04:32:00,
2013-04-25 23:43:00,41.0,21.0,-100.00,North,-999,-999.0,-999.0,44,0.00,,,0.00,,2013-04-26 04:43:00,
2013-04-25 23:52:00,40.0,21.0,-100.00,North,-999,-999.0,-999.0,45,0.00,,,0.00,,2013-04-26 04:52:00,